Weather History for Kecskemet, Hungary

Change the Weather History Date:

Saturday, November 23, 2013

  Actual Average (LHBP) Record (LHBP)
Temperature  
Mean Temperature 47 °F -  
Max Temperature 50 °F 43 °F 55 °F (2007)
Min Temperature 44 °F 32 °F 15 °F (2011)
Degree Days  
Heating Degree Days 18    
Moisture  
Dew Point 44 °F    
Average Humidity 92    
Maximum Humidity 100    
Minimum Humidity 82    
Precipitation  
Precipitation 0.00 in - - ()
Sea Level Pressure  
Sea Level Pressure 29.73 in    
Wind  
Wind Speed 10 mph ()    
Max Wind Speed 16 mph    
Max Gust Speed -    
Visibility 2.3 miles    
Events Fog , Rain    
Averages and records for this station are not official NWS values.
T = Trace of Precipitation, MM = Missing Value Source: Averaged Metar Reports

Daily Weather History Graph

Daily Weather History Graph

Search for Another Location

Airport:

Trip Planner

Search our weather history database for the weather conditions in past years. The results will help you decide how hot, cold, wet, or windy it might be!

Date:

Astronomy

Nov. 23, 2013 Rise Set
Actual Time 6:55 AM CET 3:59 PM CET
Civil Twilight 6:21 AM CET 4:32 PM CET
Nautical Twilight 5:43 AM CET 5:10 PM CET
Astronomical Twilight 5:07 AM CET 5:46 PM CET
Moon 9:18 PM CET (11/23) 10:55 AM CET (11/23)
Length of Visible Light 10h 11m
Length of Day
9h 03m
Waning Gibbous, 72% of the Moon is Illuminated
Nov 23
Waning Gibbous
Nov 25
Last Quarter
Dec 3
New
Dec 9
First Quarter
Dec 17
Full

Hourly Weather History & Observations

Time (CET) Temp. Windchill Dew Point Humidity Pressure Visibility Wind Dir Wind Speed Gust Speed Precip Events Conditions
12:15 AM 44.6 °F 39.8 °F 42.8 °F 93% 29.74 in 1.2 mi ENE 8.9 mph - N/A   Mostly Cloudy
12:45 AM 44.6 °F 39.8 °F 42.8 °F 93% 29.74 in 1.1 mi NE 8.9 mph - N/A   Mostly Cloudy
1:15 AM 44.6 °F 39.8 °F 42.8 °F 93% 29.74 in 1.1 mi ENE 8.9 mph - N/A   Mostly Cloudy
1:34 AM 44.6 °F 38.2 °F 42.8 °F 93% 29.74 in 0.9 mi ENE 13.4 mph - N/A   Mostly Cloudy
1:45 AM 44.6 °F 38.9 °F 42.8 °F 93% 29.74 in 0.6 mi ENE 11.2 mph - N/A   Overcast
1:59 AM 44.6 °F 38.9 °F 42.8 °F 93% 29.74 in 0.4 mi ENE 11.2 mph - N/A Fog Fog
2:15 AM 44.6 °F 38.9 °F 42.8 °F 93% 29.74 in 0.3 mi ENE 11.2 mph - N/A Fog Fog
2:45 AM 44.6 °F 39.8 °F 42.8 °F 93% 29.74 in 0.2 mi ENE 8.9 mph - N/A Fog Fog
3:15 AM 44.6 °F 38.9 °F 42.8 °F 93% 29.74 in 0.2 mi ENE 11.2 mph - N/A Fog Fog
3:45 AM 44.6 °F 39.8 °F 42.8 °F 93% 29.74 in 0.2 mi ENE 8.9 mph - N/A Fog Fog
4:15 AM 44.6 °F 38.9 °F 42.8 °F 93% 29.74 in 0.2 mi NE 11.2 mph - N/A Fog Fog
4:45 AM 44.6 °F 38.9 °F 42.8 °F 93% 29.74 in 0.2 mi ENE 11.2 mph - N/A Fog Fog
5:15 AM 44.6 °F 38.9 °F 42.8 °F 93% 29.74 in 0.2 mi NE 11.2 mph - N/A Fog Fog
5:45 AM - - - N/A% - 0.4 mi NE 11.2 mph - N/A Fog Fog
6:15 AM 44.6 °F 38.9 °F 42.8 °F 93% 29.74 in 0.2 mi NE 11.2 mph - N/A Fog Fog
6:45 AM 44.6 °F 38.9 °F 42.8 °F 93% 29.74 in 0.2 mi ENE 11.2 mph - N/A Fog Fog
7:15 AM 44.6 °F 38.9 °F 42.8 °F 93% 29.74 in 0.3 mi ENE 11.2 mph - N/A Fog Fog
7:45 AM 44.6 °F 38.9 °F 44.6 °F 100% 29.74 in 0.4 mi ENE 11.2 mph - N/A Fog Fog
8:15 AM 44.6 °F 38.2 °F 44.6 °F 100% 29.74 in 0.6 mi ENE 13.4 mph - N/A   Overcast
8:45 AM - - - N/A% - 0.9 mi NE 13.4 mph - N/A   Mostly Cloudy
9:15 AM 46.4 °F 40.5 °F 44.6 °F 93% 29.74 in 0.7 mi ENE 13.4 mph - N/A   Overcast
9:45 AM 46.4 °F 39.9 °F 44.6 °F 93% 29.74 in 1.2 mi NE 15.7 mph - N/A   Mostly Cloudy
9:58 AM 46.4 °F 39.9 °F 44.6 °F 93% 29.74 in 1.9 mi NE 15.7 mph - N/A   Mostly Cloudy
10:15 AM 46.4 °F 40.5 °F 44.6 °F 93% 29.74 in 1.9 mi ENE 13.4 mph - N/A   Mostly Cloudy
10:45 AM 46.4 °F 40.5 °F 46.4 °F 100% 29.74 in 2.5 mi ENE 13.4 mph - N/A   Mostly Cloudy
11:04 AM 46.4 °F 41.2 °F 44.6 °F 93% 29.74 in 3.1 mi ENE 11.2 mph - N/A   Overcast
11:15 AM 46.4 °F 42.0 °F 44.6 °F 93% 29.74 in 3.1 mi ENE 8.9 mph - N/A   Overcast
11:45 AM - - - N/A% - 3.7 mi NE 13.4 mph - N/A   Overcast
12:15 PM 48.2 °F - 44.6 °F 87% 29.74 in 4.3 mi NE 13.4 mph - N/A   Mostly Cloudy
12:45 PM 48.2 °F - 46.4 °F 93% 29.71 in 5.0 mi ENE 15.7 mph - N/A   Overcast
1:15 PM 48.2 °F - 46.4 °F 93% 29.71 in 5.0 mi ENE 13.4 mph - N/A   Mostly Cloudy
1:45 PM 48.2 °F - 46.4 °F 93% 29.71 in 5.0 mi ENE 13.4 mph - N/A   Mostly Cloudy
2:15 PM 50.0 °F - 46.4 °F 87% 29.71 in 5.0 mi ENE 13.4 mph - N/A   Mostly Cloudy
2:45 PM - - - N/A% - 1.9 mi NE 13.4 mph - N/A   Overcast
3:15 PM 50.0 °F - 46.4 °F 87% 29.71 in 5.0 mi ENE 13.4 mph - N/A   Mostly Cloudy
3:45 PM 48.2 °F - 46.4 °F 93% 29.71 in - ENE 13.4 mph - N/A   Clear
4:15 PM 48.2 °F - 46.4 °F 93% 29.71 in - NE 11.2 mph - N/A   Clear
4:45 PM 48.2 °F - 46.4 °F 93% 29.71 in - NE 13.4 mph - N/A   Clear
5:15 PM 48.2 °F - 46.4 °F 93% 29.71 in - ENE 11.2 mph - N/A   Clear
5:45 PM - - - N/A% - 3.1 mi NE 13.4 mph - N/A Rain Light Rain
6:15 PM 48.2 °F - 46.4 °F 93% 29.71 in - ENE 11.2 mph - N/A   Clear
6:45 PM 48.2 °F - 44.6 °F 87% 29.71 in - ENE 8.9 mph - N/A   Clear
7:15 PM 48.2 °F - 44.6 °F 87% 29.71 in - ENE 8.9 mph - N/A   Clear
7:45 PM 48.2 °F - 44.6 °F 87% 29.71 in - ESE 4.5 mph - N/A   Clear
8:15 PM 48.2 °F - 44.6 °F 87% 29.71 in - NE 6.7 mph - N/A   Clear
8:45 PM - - - N/A% - 3.1 mi ENE 6.7 mph - N/A Rain Light Rain
9:15 PM 48.2 °F - 44.6 °F 87% 29.71 in 6.2 mi NE 8.9 mph - N/A   Overcast
9:45 PM 48.2 °F - 42.8 °F 82% 29.71 in 6.2 mi ENE 13.4 mph - N/A   Overcast
10:15 PM 48.2 °F - 42.8 °F 82% 29.71 in 6.2 mi ENE 8.9 mph - N/A   Overcast
10:45 PM 46.4 °F 43.0 °F 44.6 °F 93% 29.71 in 6.2 mi ENE 6.7 mph - N/A   Overcast
11:15 PM 46.4 °F 43.0 °F 44.6 °F 93% 29.71 in 6.2 mi ENE 6.7 mph - N/A Rain Light Rain
11:45 PM - - - N/A% - 1.5 mi North - - N/A Rain Light Rain